User: anonymous   Login
Location: Kawakawa
(35.3830°S, 174.0670°E)
Time: 12:30:09
(UTC+13:00)
Language:

Cosmos 1707 Rocket - Orbit

View from above orbital plane
View from above orbital plane
View from above satellite
View from above satellite

Ground track
Ground track

The orbit data is extracted from the following two-line orbital elements,

1 16327U 85113B   19295.33874762  .00000056  00000-0  37969-5 0  9993
2 16327  82.5375  11.0411 0020078  45.1623 358.7774 14.83446583828956
Epoch (UTC): 22 October 2019 08:07:47
Eccentricity: 0.0020078
inclination: 82.5375°
perigee height: 604 km
apogee height: 632 km
right ascension of ascending node: 11.0411°
argument of perigee: 45.1623°
revolutions per day: 14.83446583
mean anomaly at epoch: 358.7774°
orbit number at epoch: 82895

The dashed part of the orbit path shows where the satellite is in the earth's shadow,  

DLR